Radiation Dose at Monitoring Post of Fukushima Daini Nuclear Power Station
Date,Time,MP-1(microSv/h),MP-2(microSv/h),MP-3(microSv/h),MP-4(microSv/h),MP-5(microSv/h),MP-6(microSv/h),MP-7(microSv/h),Wind Direction,Wind Velocity(m/s),Rain
2022/01/23,00:00,0.159,0.147,0.230,0.222,0.224,0.126,0.080,north,1.8,No
2022/01/23,00:10,0.158,0.146,0.228,0.221,0.224,0.126,0.080,north-northwest,2.1,No
2022/01/23,00:20,0.159,0.146,0.230,0.222,0.224,0.125,0.080,north-northwest,2.7,No
2022/01/23,00:30,0.158,0.146,0.229,0.221,0.224,0.126,0.079,north,1.9,No
2022/01/23,00:40,0.159,0.146,0.229,0.222,0.223,0.125,0.080,north,1.3,No
2022/01/23,00:50,0.159,0.147,0.230,0.221,0.224,0.125,0.079,north-northwest,1.0,No
2022/01/23,01:00,0.159,0.146,0.229,0.223,0.223,0.125,0.079,north-northeast,1.0,No
2022/01/23,01:10,0.159,0.145,0.230,0.222,0.222,0.125,0.080,north-northwest,0.7,No
2022/01/23,01:20,0.159,0.145,0.230,0.222,0.223,0.126,0.080,north-northwest,0.8,No
2022/01/23,01:30,0.159,0.146,0.230,0.222,0.224,0.126,0.079,north,1.3,No
2022/01/23,01:40,0.159,0.147,0.229,0.222,0.224,0.126,0.080,north,2.1,No
2022/01/23,01:50,0.159,0.146,0.229,0.224,0.224,0.125,0.080,north,1.9,No
2022/01/23,02:00,0.160,0.146,0.230,0.222,0.223,0.126,0.080,north,3.0,No
2022/01/23,02:10,0.159,0.146,0.229,0.221,0.224,0.126,0.079,north,3.0,No
2022/01/23,02:20,0.161,0.146,0.229,0.221,0.223,0.126,0.079,north-northwest,3.0,No
2022/01/23,02:30,0.159,0.147,0.230,0.222,0.223,0.127,0.080,north-northwest,2.9,No
2022/01/23,02:40,0.159,0.146,0.229,0.223,0.224,0.126,0.079,north-northwest,2.9,No
2022/01/23,02:50,0.160,0.146,0.230,0.222,0.224,0.126,0.080,north-northwest,4.1,No
2022/01/23,03:00,0.159,0.146,0.230,0.221,0.225,0.126,0.080,north-northwest,4.8,No
2022/01/23,03:10,0.161,0.146,0.230,0.222,0.224,0.125,0.080,north-northwest,5.2,No
2022/01/23,03:20,0.159,0.146,0.230,0.223,0.224,0.126,0.079,north-northwest,4.9,No
2022/01/23,03:30,0.158,0.146,0.229,0.222,0.224,0.126,0.080,northwest,4.4,No
2022/01/23,03:40,0.159,0.146,0.230,0.221,0.224,0.126,0.080,north-northwest,4.1,No
2022/01/23,03:50,0.160,0.147,0.229,0.222,0.224,0.125,0.080,northwest,4.7,No
2022/01/23,04:00,0.159,0.147,0.229,0.223,0.224,0.125,0.080,northwest,4.6,No
2022/01/23,04:10,0.159,0.147,0.229,0.222,0.224,0.126,0.080,west-northwest,4.4,No
2022/01/23,04:20,0.158,0.146,0.230,0.222,0.223,0.125,0.080,west-northwest,3.5,No
2022/01/23,04:30,0.158,0.146,0.228,0.222,0.224,0.125,0.081,west,2.5,No
2022/01/23,04:40,0.158,0.146,0.230,0.221,0.223,0.125,0.079,west-northwest,1.9,No
2022/01/23,04:50,0.160,0.147,0.230,0.223,0.222,0.126,0.080,west-northwest,3.0,No
2022/01/23,05:00,0.159,0.145,0.229,0.223,0.224,0.125,0.081,northwest,2.4,No
2022/01/23,05:10,0.159,0.146,0.228,0.222,0.224,0.126,0.079,northwest,2.7,No
2022/01/23,05:20,0.158,0.146,0.230,0.222,0.224,0.126,0.079,northwest,1.9,No
2022/01/23,05:30,0.159,0.146,0.230,0.222,0.224,0.125,0.079,northwest,1.9,No
2022/01/23,05:40,0.159,0.146,0.230,0.223,0.225,0.126,0.080,north-northwest,2.4,No
2022/01/23,05:50,0.160,0.146,0.230,0.222,0.224,0.126,0.080,north-northwest,2.7,No
2022/01/23,06:00,0.160,0.146,0.229,0.223,0.224,0.125,0.080,north,2.7,No
2022/01/23,06:10,0.159,0.147,0.230,0.222,0.225,0.126,0.080,north,2.4,No
2022/01/23,06:20,0.159,0.145,0.228,0.222,0.224,0.126,0.080,north-northwest,1.8,No
2022/01/23,06:30,0.159,0.147,0.228,0.222,0.224,0.126,0.080,north-northwest,1.3,No
2022/01/23,06:40,0.160,0.145,0.231,0.221,0.224,0.125,0.079,west-northwest,2.1,No
2022/01/23,06:50,0.159,0.147,0.231,0.222,0.224,0.126,0.080,northwest,2.7,No
2022/01/23,07:00,0.159,0.147,0.230,0.223,0.224,0.127,0.079,northwest,3.7,No
2022/01/23,07:10,0.160,0.147,0.230,0.223,0.225,0.126,0.080,northwest,4.1,No
2022/01/23,07:20,0.159,0.146,0.230,0.222,0.226,0.125,0.080,northwest,3.8,No
2022/01/23,07:30,0.159,0.146,0.229,0.222,0.225,0.126,0.080,northwest,3.7,No
2022/01/23,07:40,0.160,0.146,0.230,0.222,0.225,0.126,0.079,northwest,1.3,No
2022/01/23,07:50,0.160,0.148,0.229,0.222,0.224,0.126,0.080,north-northwest,1.6,No
2022/01/23,08:00,0.160,0.147,0.230,0.223,0.224,0.126,0.079,northwest,0.7,No
2022/01/23,08:10,0.159,0.147,0.229,0.222,0.225,0.126,0.080,west-northwest,0.7,No
2022/01/23,08:20,0.159,0.146,0.230,0.222,0.224,0.126,0.080,west-southwest,1.9,No
2022/01/23,08:30,0.159,0.145,0.230,0.222,0.224,0.126,0.080,-,CALM,No
2022/01/23,08:40,0.160,0.146,0.229,0.222,0.224,0.126,0.080,west,1.3,No
2022/01/23,08:50,0.160,0.146,0.229,0.222,0.224,0.126,0.080,west-northwest,1.6,No
2022/01/23,09:00,0.160,0.146,0.230,0.222,0.223,0.126,0.080,west-northwest,2.2,No
2022/01/23,09:10,0.159,0.146,0.228,0.223,0.224,0.126,0.080,west-northwest,2.4,No
2022/01/23,09:20,0.159,0.146,0.228,0.221,0.225,0.126,0.080,west-northwest,2.1,No
2022/01/23,09:30,0.159,0.146,0.229,0.222,0.223,0.126,0.079,west-northwest,2.4,No
2022/01/23,09:40,0.159,0.146,0.228,0.222,0.224,0.126,0.079,west,3.3,No
2022/01/23,09:50,0.160,0.146,0.229,0.222,0.224,0.125,0.080,northwest,0.7,No
2022/01/23,10:00,0.160,0.146,0.230,0.222,0.223,0.126,0.080,north,2.1,No
2022/01/23,10:10,0.158,0.145,0.228,0.223,0.224,0.125,0.079,north,3.2,No
2022/01/23,10:20,0.160,0.145,0.229,0.221,0.224,0.126,0.081,north,3.5,No
2022/01/23,10:30,0.159,0.146,0.230,0.222,0.222,0.125,0.079,north,3.3,No
2022/01/23,10:40,0.159,0.145,0.229,0.221,0.225,0.126,0.079,north-northwest,4.0,No
2022/01/23,10:50,0.159,0.147,0.228,0.221,0.224,0.125,0.080,north,3.7,No
2022/01/23,11:00,0.159,0.146,0.228,0.223,0.225,0.126,0.079,north,4.1,No
2022/01/23,11:10,0.158,0.146,0.229,0.221,0.224,0.124,0.080,north,3.7,No
2022/01/23,11:20,0.160,0.146,0.228,0.222,0.224,0.126,0.079,north,4.3,No
2022/01/23,11:30,0.159,0.145,0.229,0.221,0.224,0.125,0.080,north,2.4,No
2022/01/23,11:40,0.159,0.145,0.229,0.221,0.224,0.125,0.079,north,3.0,No
2022/01/23,11:50,0.159,0.146,0.230,0.222,0.225,0.127,0.079,north-northeast,3.5,No
2022/01/23,12:00,0.158,0.145,0.229,0.220,0.224,0.125,0.080,northeast,3.0,No
2022/01/23,12:10,0.159,0.146,0.228,0.223,0.225,0.126,0.080,northeast,2.5,No
2022/01/23,12:20,0.159,0.146,0.229,0.223,0.223,0.126,0.079,east-northeast,2.4,No
2022/01/23,12:30,0.160,0.146,0.229,0.223,0.226,0.126,0.080,east,2.2,No
2022/01/23,12:40,0.160,0.146,0.230,0.222,0.223,0.126,0.079,east-southeast,2.4,No
2022/01/23,12:50,0.159,0.146,0.229,0.221,0.226,0.127,0.080,east-southeast,1.9,No
2022/01/23,13:00,0.159,0.147,0.229,0.222,0.223,0.126,0.080,east-southeast,2.7,No
2022/01/23,13:10,0.158,0.147,0.230,0.223,0.226,0.126,0.079,southeast,1.8,No
2022/01/23,13:20,0.159,0.145,0.230,0.222,0.224,0.126,0.081,southeast,1.9,No
2022/01/23,13:30,0.157,0.147,0.229,0.223,0.225,0.127,0.080,southeast,2.4,No
2022/01/23,13:40,0.159,0.146,0.229,0.222,0.226,0.127,0.080,east-southeast,1.9,No
2022/01/23,13:50,0.157,0.147,0.229,0.223,0.225,0.126,0.081,south-southeast,1.1,No
2022/01/23,14:00,0.158,0.146,0.230,0.221,0.225,0.126,0.079,southeast,0.7,No
2022/01/23,14:10,0.158,0.146,0.229,0.223,0.225,0.126,0.080,east-southeast,1.1,No
2022/01/23,14:20,0.159,0.146,0.229,0.222,0.224,0.126,0.079,southeast,1.0,No
2022/01/23,14:30,0.159,0.145,0.230,0.221,0.225,0.125,0.080,east-southeast,1.4,No
2022/01/23,14:40,0.159,0.146,0.230,0.222,0.224,0.126,0.080,east,0.8,No
2022/01/23,14:50,0.159,0.146,0.229,0.222,0.224,0.125,0.080,east-southeast,1.9,No
2022/01/23,15:00,0.160,0.146,0.230,0.223,0.225,0.126,0.080,east,2.2,No
2022/01/23,15:10,0.160,0.146,0.230,0.221,0.225,0.126,0.080,east-southeast,1.3,No
2022/01/23,15:20,0.159,0.146,0.229,0.221,0.224,0.125,0.079,east-southeast,1.0,No
2022/01/23,15:30,0.160,0.146,0.230,0.222,0.224,0.125,0.080,east,1.4,No
2022/01/23,15:40,0.159,0.146,0.230,0.223,0.224,0.126,0.079,east-southeast,1.3,No
2022/01/23,15:50,0.159,0.147,0.230,0.223,0.225,0.127,0.080,east-southeast,1.6,No
2022/01/23,16:00,0.159,0.146,0.230,0.222,0.223,0.127,0.080,east-southeast,1.3,No
2022/01/23,16:10,0.159,0.146,0.229,0.223,0.225,0.126,0.079,southeast,0.7,No
2022/01/23,16:20,0.159,0.146,0.229,0.223,0.224,0.126,0.080,southeast,1.3,No
2022/01/23,16:30,0.160,0.146,0.229,0.221,0.224,0.126,0.079,southeast,1.6,No
2022/01/23,16:40,0.159,0.145,0.228,0.223,0.225,0.126,0.080,southeast,1.9,No
2022/01/23,16:50,0.159,0.146,0.229,0.222,0.223,0.127,0.079,southeast,2.7,No
2022/01/23,17:00,0.159,0.146,0.230,0.221,0.223,0.126,0.080,southeast,3.0,No
2022/01/23,17:10,0.159,0.147,0.230,0.223,0.224,0.127,0.080,southeast,2.7,No
2022/01/23,17:20,0.159,0.147,0.229,0.222,0.224,0.125,0.079,southeast,1.6,No
2022/01/23,17:30,0.159,0.147,0.231,0.222,0.224,0.126,0.080,south-southeast,1.6,No
2022/01/23,17:40,0.159,0.146,0.230,0.222,0.224,0.126,0.080,south-southeast,1.8,No
2022/01/23,17:50,0.159,0.146,0.230,0.223,0.224,0.126,0.080,south-southeast,1.9,No
2022/01/23,18:00,0.158,0.146,0.229,0.223,0.224,0.126,0.080,south-southeast,2.7,No
2022/01/23,18:10,0.159,0.147,0.230,0.222,0.224,0.125,0.080,south-southeast,3.2,No
2022/01/23,18:20,0.158,0.146,0.229,0.223,0.225,0.126,0.079,south-southeast,2.7,No
2022/01/23,18:30,0.158,0.146,0.229,0.222,0.224,0.126,0.080,south-southeast,1.9,No
2022/01/23,18:40,0.159,0.147,0.231,0.222,0.223,0.126,0.080,south,2.1,No
2022/01/23,18:50,0.159,0.147,0.230,0.223,0.224,0.126,0.080,south-southwest,2.5,No
2022/01/23,19:00,0.159,0.146,0.229,0.222,0.224,0.125,0.080,south,2.1,No
2022/01/23,19:10,0.158,0.147,0.229,0.223,0.223,0.125,0.080,south,2.5,No
2022/01/23,19:20,0.160,0.147,0.231,0.223,0.224,0.124,0.079,south,2.5,No
2022/01/23,19:30,0.159,0.146,0.229,0.223,0.224,0.127,0.080,south,2.4,No
2022/01/23,19:40,0.159,0.147,0.231,0.223,0.224,0.126,0.080,south,2.5,No
2022/01/23,19:50,0.159,0.147,0.230,0.222,0.224,0.125,0.081,south,2.4,No
2022/01/23,20:00,0.159,0.148,0.230,0.222,0.225,0.126,0.079,south,3.2,No
2022/01/23,20:10,0.160,0.146,0.230,0.223,0.225,0.126,0.080,south,3.8,No
2022/01/23,20:20,0.160,0.147,0.230,0.224,0.224,0.126,0.081,south-southeast,3.3,No
2022/01/23,20:30,0.158,0.146,0.232,0.223,0.225,0.126,0.080,south-southeast,3.8,No
2022/01/23,20:40,0.159,0.146,0.229,0.222,0.223,0.126,0.081,south,4.1,No
2022/01/23,20:50,0.160,0.147,0.231,0.224,0.225,0.126,0.081,south,3.5,No
2022/01/23,21:00,0.160,0.148,0.230,0.222,0.223,0.126,0.080,south-southeast,3.3,No
2022/01/23,21:10,0.159,0.147,0.231,0.221,0.225,0.127,0.080,south,4.4,No
2022/01/23,21:20,0.160,0.147,0.230,0.222,0.225,0.127,0.080,south,3.8,No
2022/01/23,21:30,0.159,0.146,0.230,0.223,0.224,0.126,0.080,south,2.7,No
2022/01/23,21:40,0.158,0.146,0.230,0.222,0.225,0.126,0.080,south,3.0,No
2022/01/23,21:50,0.160,0.147,0.230,0.222,0.223,0.126,0.080,south,4.3,No
2022/01/23,22:00,0.160,0.148,0.231,0.223,0.225,0.126,0.080,south,3.5,No
2022/01/23,22:10,0.160,0.147,0.230,0.224,0.225,0.125,0.079,southwest,2.9,No
2022/01/23,22:20,0.159,0.147,0.230,0.223,0.224,0.126,0.080,south-southwest,2.5,No
2022/01/23,22:30,0.159,0.148,0.231,0.222,0.224,0.125,0.079,southwest,3.0,No
2022/01/23,22:40,0.161,0.146,0.231,0.222,0.225,0.126,0.080,south-southwest,2.7,No
2022/01/23,22:50,0.159,0.147,0.230,0.224,0.225,0.126,0.080,south-southwest,3.8,No
2022/01/23,23:00,0.159,0.148,0.229,0.223,0.224,0.126,0.079,south-southwest,3.5,No
2022/01/23,23:10,0.160,0.147,0.230,0.223,0.226,0.126,0.080,south-southwest,3.5,No
2022/01/23,23:20,0.159,0.147,0.232,0.223,0.225,0.126,0.080,south,4.1,No
2022/01/23,23:30,0.160,0.148,0.230,0.223,0.224,0.126,0.080,south-southwest,3.8,No
2022/01/23,23:40,0.159,0.147,0.229,0.224,0.225,0.126,0.081,south-southwest,4.1,No
2022/01/23,23:50,0.160,0.147,0.230,0.222,0.225,0.127,0.080,south-southwest,3.0,No
